Location: College Park
(38.9810°N, 76.9370°W)
Time: 12:40:13

Tiangong 2 - Pass Details

Date: 12 March 2018
Orbit: 383 x 388 km, 42.8° (Epoch: 19 March)

Event Time Altitude Azimuth Distance (km) Brightness Sun altitude
Exits shadow 06:10:33 19° 206° (SSW) 978 2.8 -15.0°
Maximum altitude 06:12:18 35° 151° (SSE) 638 2.3 -14.7°
Drops below altitude 10° 06:15:15 10° 83° (E) 1,412 5.4 -14.1°
Sets 06:17:25 0° 74° (ENE) 2,270 6.8 -13.7°
